Time,TemperatureF,DewpointF,PressureIn,WindDirection,WindDirectionDegrees,WindSpeedMPH,WindSpeedGustMPH,Humidity,HourlyPrecipIn,Conditions,Clouds,dailyrainin,SoftwareType,DateUTC
2013-06-02 00:03:00,51.8,41.9,29.99,North,352,11.7,21.7,68,0.00,,,0.00,CWS Microserver 1.4,2013-06-02 05:03:00,
2013-06-02 00:08:00,51.9,41.5,29.99,NNW,344,13.4,23.0,67,0.00,,,0.00,CWS Microserver 1.4,2013-06-02 05:08:00,
2013-06-02 00:13:00,52.1,40.6,29.99,North,8,19.7,25.1,64,0.00,,,0.00,CWS Microserver 1.4,2013-06-02 05:13:00,
2013-06-02 00:18:00,52.5,39.2,29.99,North,4,16.4,31.7,60,0.00,,,0.00,CWS Microserver 1.4,2013-06-02 05:18:00,
2013-06-02 00:23:00,52.5,39.3,30.00,NNE,20,15.0,31.7,60,0.00,,,0.00,CWS Microserver 1.4,2013-06-02 05:23:00,
2013-06-02 00:28:00,52.3,39.5,30.00,North,5,13.0,31.0,61,0.00,,,0.00,CWS Microserver 1.4,2013-06-02 05:28:00,
2013-06-02 00:33:00,52.3,39.7,30.00,NNE,19,16.2,24.0,62,0.00,,,0.00,CWS Microserver 1.4,2013-06-02 05:33:00,
2013-06-02 00:38:00,52.3,40.0,30.00,North,358,14.3,23.6,62,0.00,,,0.00,CWS Microserver 1.4,2013-06-02 05:38:00,
2013-06-02 00:43:00,52.3,40.4,30.00,North,1,15.2,23.6,63,0.00,,,0.00,CWS Microserver 1.4,2013-06-02 05:43:00,
2013-06-02 00:48:00,52.3,40.3,30.00,North,3,13.1,20.0,63,0.00,,,0.00,CWS Microserver 1.4,2013-06-02 05:48:00,
2013-06-02 00:53:00,52.3,40.6,30.00,NNE,23,7.4,20.0,64,0.00,,,0.00,CWS Microserver 1.4,2013-06-02 05:53:00,
2013-06-02 00:58:00,52.3,40.5,30.00,North,4,13.7,19.0,64,0.00,,,0.00,CWS Microserver 1.4,2013-06-02 05:58:00,
2013-06-02 01:03:00,52.3,40.6,30.00,NNE,15,12.8,15.1,64,0.00,,,0.00,CWS Microserver 1.4,2013-06-02 06:03:00,
2013-06-02 01:08:00,52.3,40.9,30.00,NNE,17,7.8,14.7,65,0.00,,,0.00,CWS Microserver 1.4,2013-06-02 06:08:00,
2013-06-02 01:13:00,52.3,41.3,30.00,North,11,7.2,15.4,66,0.00,,,0.00,CWS Microserver 1.4,2013-06-02 06:13:00,
2013-06-02 01:18:00,52.1,41.5,30.00,North,9,9.0,15.4,67,0.00,,,0.00,CWS Microserver 1.4,2013-06-02 06:18:00,
2013-06-02 01:23:00,52.1,41.6,30.00,North,9,6.6,12.9,67,0.00,,,0.00,CWS Microserver 1.4,2013-06-02 06:23:00,
2013-06-02 01:28:00,51.9,41.3,30.00,NNE,14,11.5,13.6,67,0.00,,,0.00,CWS Microserver 1.4,2013-06-02 06:28:00,
2013-06-02 01:33:00,52.1,40.9,30.00,NNE,19,21.3,21.3,65,0.00,,,0.00,CWS Microserver 1.4,2013-06-02 06:33:00,
2013-06-02 01:38:00,52.1,41.2,30.00,NNE,15,12.4,22.8,66,0.00,,,0.00,CWS Microserver 1.4,2013-06-02 06:38:00,
2013-06-02 01:48:00,51.9,41.0,30.00,NNE,21,11.7,21.3,66,0.00,,,0.00,CWS Microserver 1.4,2013-06-02 06:48:00,
2013-06-02 01:53:00,52.1,41.0,30.00,NNE,17,12.0,19.7,65,0.00,,,0.00,CWS Microserver 1.4,2013-06-02 06:53:00,
2013-06-02 01:58:00,51.9,41.3,30.00,NNE,17,12.3,19.7,67,0.00,,,0.00,CWS Microserver 1.4,2013-06-02 06:58:00,
2013-06-02 02:03:00,51.9,41.3,30.00,North,4,6.9,17.0,67,0.00,,,0.00,CWS Microserver 1.4,2013-06-02 07:03:00,
2013-06-02 02:08:00,51.9,41.4,30.01,North,7,8.5,17.1,67,0.00,,,0.00,CWS Microserver 1.4,2013-06-02 07:08:00,
2013-06-02 02:13:00,51.8,41.9,30.01,North,10,9.0,17.1,68,0.00,,,0.00,CWS Microserver 1.4,2013-06-02 07:13:00,
2013-06-02 02:18:00,51.8,42.7,30.01,NNW,332,8.7,15.2,71,0.00,,,0.00,CWS Microserver 1.4,2013-06-02 07:18:00,
2013-06-02 02:23:00,51.0,43.4,30.01,North,1,9.2,11.8,75,0.00,,,0.00,CWS Microserver 1.4,2013-06-02 07:23:00,
2013-06-02 02:28:00,50.5,45.0,30.01,NNW,335,9.3,11.8,81,0.00,,,0.00,CWS Microserver 1.4,2013-06-02 07:28:00,
2013-06-02 02:33:00,50.0,45.2,30.01,North,352,6.0,10.4,83,0.00,,,0.00,CWS Microserver 1.4,2013-06-02 07:33:00,
2013-06-02 02:38:00,49.8,45.5,30.01,North,5,7.3,10.7,85,0.00,,,0.00,CWS Microserver 1.4,2013-06-02 07:38:00,
2013-06-02 02:43:00,49.4,45.3,30.01,North,4,9.3,10.7,85,0.00,,,0.00,CWS Microserver 1.4,2013-06-02 07:43:00,
2013-06-02 02:48:00,49.4,45.8,30.01,NNE,22,6.3,10.3,87,0.00,,,0.00,CWS Microserver 1.4,2013-06-02 07:48:00,
2013-06-02 02:53:00,49.2,45.8,30.01,NNE,17,8.8,10.1,88,0.00,,,0.00,CWS Microserver 1.4,2013-06-02 07:53:00,
2013-06-02 02:58:00,49.1,45.9,30.01,NNE,17,7.2,10.8,88,0.00,,,0.00,CWS Microserver 1.4,2013-06-02 07:58:00,
2013-06-02 03:03:00,48.9,46.0,30.01,NNE,32,9.5,10.8,89,0.00,,,0.00,CWS Microserver 1.4,2013-06-02 08:03:00,
2013-06-02 03:08:00,48.7,45.7,30.01,NE,50,6.5,11.6,89,0.00,,,0.00,CWS Microserver 1.4,2013-06-02 08:08:00,
2013-06-02 03:13:00,48.7,45.8,30.01,NNE,17,9.1,11.6,89,0.00,,,0.00,CWS Microserver 1.4,2013-06-02 08:13:00,
2013-06-02 03:18:00,48.7,45.8,30.01,NNE,19,5.7,9.5,89,0.00,,,0.00,CWS Microserver 1.4,2013-06-02 08:18:00,
2013-06-02 03:23:00,48.9,45.9,30.01,North,8,6.7,9.5,89,0.00,,,0.00,CWS Microserver 1.4,2013-06-02 08:23:00,
2013-06-02 03:28:00,49.1,45.8,30.02,North,0,5.3,8.6,88,0.00,,,0.00,CWS Microserver 1.4,2013-06-02 08:28:00,
2013-06-02 03:33:00,49.2,45.7,30.02,NNW,340,7.2,8.7,87,0.00,,,0.00,CWS Microserver 1.4,2013-06-02 08:33:00,
2013-06-02 03:38:00,49.8,45.6,30.02,North,9,8.4,13.2,85,0.00,,,0.00,CWS Microserver 1.4,2013-06-02 08:38:00,
2013-06-02 03:43:00,50.0,45.9,30.02,NNW,347,8.0,13.2,85,0.00,,,0.00,CWS Microserver 1.4,2013-06-02 08:43:00,
2013-06-02 03:48:00,50.0,45.5,30.02,NW,325,8.2,12.1,84,0.00,,,0.00,CWS Microserver 1.4,2013-06-02 08:48:00,
2013-06-02 03:53:00,49.8,44.6,30.03,NNW,338,10.9,12.5,82,0.00,,,0.00,CWS Microserver 1.4,2013-06-02 08:53:00,
2013-06-02 03:58:00,49.8,44.5,30.03,NNW,348,8.9,13.3,82,0.00,,,0.00,CWS Microserver 1.4,2013-06-02 08:58:00,
2013-06-02 04:03:00,49.6,44.7,30.03,North,356,9.1,13.3,83,0.00,,,0.00,CWS Microserver 1.4,2013-06-02 09:03:00,
2013-06-02 04:08:00,49.4,44.5,30.03,NNW,347,6.2,14.1,83,0.00,,,0.00,CWS Microserver 1.4,2013-06-02 09:08:00,
2013-06-02 04:13:00,49.4,44.4,30.03,NNW,337,8.9,14.1,82,0.00,,,0.00,CWS Microserver 1.4,2013-06-02 09:13:00,
2013-06-02 04:18:00,49.4,44.4,30.03,NNW,338,9.0,12.9,82,0.00,,,0.00,CWS Microserver 1.4,2013-06-02 09:18:00,
2013-06-02 04:23:00,49.4,44.3,30.03,NNW,340,10.9,13.9,82,0.00,,,0.00,CWS Microserver 1.4,2013-06-02 09:23:00,
2013-06-02 04:28:00,49.4,44.3,30.03,NNW,336,9.1,13.9,82,0.00,,,0.00,CWS Microserver 1.4,2013-06-02 09:28:00,
2013-06-02 04:33:00,49.6,44.3,30.03,NNW,346,12.5,13.9,81,0.00,,,0.00,CWS Microserver 1.4,2013-06-02 09:33:00,
2013-06-02 04:38:00,49.6,44.5,30.03,NNW,345,8.0,16.3,82,0.00,,,0.00,CWS Microserver 1.4,2013-06-02 09:38:00,
2013-06-02 04:43:00,49.4,44.0,30.03,North,5,15.3,17.6,81,0.00,,,0.00,CWS Microserver 1.4,2013-06-02 09:43:00,
2013-06-02 04:48:00,49.2,44.0,30.03,North,358,11.2,17.6,82,0.00,,,0.00,CWS Microserver 1.4,2013-06-02 09:48:00,
2013-06-02 04:53:00,49.1,44.1,30.03,North,8,9.1,15.7,82,0.00,,,0.00,CWS Microserver 1.4,2013-06-02 09:53:00,
2013-06-02 04:58:00,49.1,44.0,30.03,North,355,11.4,15.2,82,0.00,,,0.00,CWS Microserver 1.4,2013-06-02 09:58:00,
2013-06-02 05:03:00,49.1,43.8,30.04,North,1,13.8,16.1,81,0.00,,,0.00,CWS Microserver 1.4,2013-06-02 10:03:00,
2013-06-02 05:08:00,48.9,43.8,30.04,NNW,348,10.7,16.1,82,0.00,,,0.00,CWS Microserver 1.4,2013-06-02 10:08:00,
2013-06-02 05:13:00,48.9,43.6,30.04,North,2,12.3,14.1,81,0.00,,,0.00,CWS Microserver 1.4,2013-06-02 10:13:00,
2013-06-02 05:18:00,48.9,43.5,30.04,North,7,11.5,15.6,81,0.00,,,0.00,CWS Microserver 1.4,2013-06-02 10:18:00,
2013-06-02 05:23:00,48.9,43.3,30.04,North,6,13.8,17.5,81,0.00,,,0.00,CWS Microserver 1.4,2013-06-02 10:23:00,
2013-06-02 05:28:00,48.7,43.3,30.04,North,5,11.0,18.0,81,0.00,,,0.00,CWS Microserver 1.4,2013-06-02 10:28:00,
2013-06-02 05:33:00,48.7,43.5,30.04,North,359,16.7,18.0,82,0.00,,,0.00,CWS Microserver 1.4,2013-06-02 10:33:00,
2013-06-02 05:38:00,48.5,42.9,30.04,North,1,8.9,17.6,81,0.00,,,0.00,CWS Microserver 1.4,2013-06-02 10:38:00,
2013-06-02 05:43:00,48.5,43.1,30.05,North,0,12.3,18.9,81,0.00,,,0.00,CWS Microserver 1.4,2013-06-02 10:43:00,
2013-06-02 05:48:00,48.3,42.9,30.05,NNE,21,11.1,18.9,81,0.00,,,0.00,CWS Microserver 1.4,2013-06-02 10:48:00,
2013-06-02 05:53:00,48.3,42.7,30.05,NNE,15,9.2,17.0,81,0.00,,,0.00,CWS Microserver 1.4,2013-06-02 10:53:00,
2013-06-02 05:58:00,48.3,42.7,30.05,North,354,6.7,17.6,80,0.00,,,0.00,CWS Microserver 1.4,2013-06-02 10:58:00,
2013-06-02 06:03:00,48.3,42.4,30.06,NNE,16,14.0,18.3,80,0.00,,,0.00,CWS Microserver 1.4,2013-06-02 11:03:00,
2013-06-02 06:08:00,48.3,42.5,30.06,NNE,16,11.0,19.3,80,0.00,,,0.00,CWS Microserver 1.4,2013-06-02 11:08:00,
2013-06-02 06:13:00,48.3,42.7,30.06,North,355,11.3,19.4,80,0.00,,,0.00,CWS Microserver 1.4,2013-06-02 11:13:00,
2013-06-02 06:18:00,48.3,42.4,30.06,North,351,6.9,19.4,80,0.00,,,0.00,CWS Microserver 1.4,2013-06-02 11:18:00,
2013-06-02 06:23:00,48.5,42.4,30.07,North,11,10.4,15.5,79,0.00,,,0.00,CWS Microserver 1.4,2013-06-02 11:23:00,
2013-06-02 06:28:00,48.5,42.4,30.07,North,4,11.2,16.2,79,0.00,,,0.00,CWS Microserver 1.4,2013-06-02 11:28:00,
2013-06-02 06:33:00,48.7,42.5,30.07,North,4,8.3,16.2,79,0.00,,,0.00,CWS Microserver 1.4,2013-06-02 11:33:00,
2013-06-02 06:38:00,48.7,42.4,30.07,North,8,6.7,16.9,78,0.00,,,0.00,CWS Microserver 1.4,2013-06-02 11:38:00,
2013-06-02 06:43:00,48.7,42.6,30.07,NNW,348,8.6,16.9,79,0.00,,,0.00,CWS Microserver 1.4,2013-06-02 11:43:00,
2013-06-02 06:48:00,48.7,42.4,30.07,North,0,12.3,14.4,78,0.00,,,0.00,CWS Microserver 1.4,2013-06-02 11:48:00,
2013-06-02 06:53:00,48.7,42.7,30.08,North,11,9.6,14.7,79,0.00,,,0.00,CWS Microserver 1.4,2013-06-02 11:53:00,
2013-06-02 06:58:00,48.7,42.4,30.08,North,5,14.1,14.7,78,0.00,,,0.00,CWS Microserver 1.4,2013-06-02 11:58:00,
2013-06-02 07:03:00,48.7,42.3,30.08,North,7,10.2,14.7,78,0.00,,,0.00,CWS Microserver 1.4,2013-06-02 12:03:00,
2013-06-02 07:08:00,48.7,42.7,30.08,NNW,344,3.9,14.5,79,0.00,,,0.00,CWS Microserver 1.4,2013-06-02 12:08:00,
2013-06-02 07:13:00,48.7,42.9,30.08,North,5,9.5,12.8,80,0.00,,,0.00,CWS Microserver 1.4,2013-06-02 12:13:00,
2013-06-02 07:18:00,48.7,43.1,30.08,NNE,17,10.9,12.8,80,0.00,,,0.00,CWS Microserver 1.4,2013-06-02 12:18:00,
2013-06-02 07:23:00,48.7,43.0,30.08,NNE,26,2.1,13.8,80,0.00,,,0.00,CWS Microserver 1.4,2013-06-02 12:23:00,
2013-06-02 07:28:00,48.9,43.2,30.08,NNE,13,7.8,13.8,80,0.00,,,0.00,CWS Microserver 1.4,2013-06-02 12:28:00,
2013-06-02 07:33:00,48.9,43.1,30.08,North,351,5.9,12.1,80,0.00,,,0.00,CWS Microserver 1.4,2013-06-02 12:33:00,
2013-06-02 07:38:00,48.9,43.3,30.09,NNE,24,7.2,12.1,81,0.00,,,0.00,CWS Microserver 1.4,2013-06-02 12:38:00,
2013-06-02 07:43:00,49.1,43.1,30.09,North,5,8.9,11.6,79,0.00,,,0.00,CWS Microserver 1.4,2013-06-02 12:43:00,
2013-06-02 07:48:00,49.2,42.5,30.09,North,4,9.0,12.9,77,0.00,,,0.00,CWS Microserver 1.4,2013-06-02 12:48:00,
2013-06-02 07:53:00,49.2,42.7,30.09,NNE,16,8.2,14.7,78,0.00,,,0.00,CWS Microserver 1.4,2013-06-02 12:53:00,
2013-06-02 07:58:00,49.2,42.3,30.09,North,4,11.6,14.7,77,0.00,,,0.00,CWS Microserver 1.4,2013-06-02 12:58:00,
2013-06-02 08:03:00,49.2,42.9,30.09,NNE,16,9.5,14.2,78,0.00,,,0.00,CWS Microserver 1.4,2013-06-02 13:03:00,
2013-06-02 08:08:00,49.2,42.1,30.10,NNE,19,11.3,13.3,76,0.00,,,0.00,CWS Microserver 1.4,2013-06-02 13:08:00,
2013-06-02 08:13:00,49.1,42.0,30.10,NNE,20,11.8,13.7,76,0.00,,,0.00,CWS Microserver 1.4,2013-06-02 13:13:00,
2013-06-02 08:18:00,49.2,42.6,30.10,NNE,23,12.1,13.7,77,0.00,,,0.00,CWS Microserver 1.4,2013-06-02 13:18:00,
2013-06-02 08:23:00,49.4,42.1,30.10,NNE,19,11.4,13.5,75,0.00,,,0.00,CWS Microserver 1.4,2013-06-02 13:23:00,
2013-06-02 08:28:00,49.4,42.1,30.10,NNE,28,8.6,15.3,76,0.00,,,0.00,CWS Microserver 1.4,2013-06-02 13:28:00,
2013-06-02 08:33:00,49.8,41.7,30.10,NNE,21,10.7,15.3,73,0.00,,,0.00,CWS Microserver 1.4,2013-06-02 13:33:00,
2013-06-02 08:38:00,49.8,42.0,30.10,North,9,5.0,13.9,74,0.00,,,0.00,CWS Microserver 1.4,2013-06-02 13:38:00,
2013-06-02 08:48:00,50.1,42.4,30.10,NNE,18,9.6,13.6,74,0.00,,,0.00,CWS Microserver 1.4,2013-06-02 13:48:00,
2013-06-02 08:53:00,50.3,42.5,30.10,NE,39,7.7,12.6,74,0.00,,,0.00,CWS Microserver 1.4,2013-06-02 13:53:00,
2013-06-02 08:58:00,50.5,41.4,30.10,North,351,7.6,12.7,70,0.00,,,0.00,CWS Microserver 1.4,2013-06-02 13:58:00,
2013-06-02 09:03:00,50.7,41.8,30.10,North,4,10.1,12.7,71,0.00,,,0.00,CWS Microserver 1.4,2013-06-02 14:03:00,
2013-06-02 09:08:00,50.9,40.1,30.10,NNE,15,9.5,17.1,66,0.00,,,0.00,CWS Microserver 1.4,2013-06-02 14:08:00,
2013-06-02 09:13:00,50.9,39.2,30.10,North,11,9.6,17.1,64,0.00,,,0.00,CWS Microserver 1.4,2013-06-02 14:13:00,
2013-06-02 09:18:00,51.2,38.9,30.10,NE,34,10.2,15.0,62,0.00,,,0.00,CWS Microserver 1.4,2013-06-02 14:18:00,
2013-06-02 09:23:00,51.6,39.2,30.10,North,352,5.2,16.5,62,0.00,,,0.00,CWS Microserver 1.4,2013-06-02 14:23:00,
2013-06-02 09:28:00,51.9,38.3,30.10,NNW,334,10.8,16.5,59,0.00,,,0.00,CWS Microserver 1.4,2013-06-02 14:28:00,
2013-06-02 09:33:00,52.1,37.4,30.10,NNE,12,9.6,15.7,57,0.00,,,0.00,CWS Microserver 1.4,2013-06-02 14:33:00,
2013-06-02 09:38:00,51.6,37.9,30.10,North,11,12.1,17.2,59,0.00,,,0.00,CWS Microserver 1.4,2013-06-02 14:38:00,
2013-06-02 09:43:00,51.9,38.9,30.10,NNE,18,9.1,17.2,61,0.00,,,0.00,CWS Microserver 1.4,2013-06-02 14:43:00,
2013-06-02 09:48:00,51.9,37.9,30.10,NNE,12,10.8,16.7,58,0.00,,,0.00,CWS Microserver 1.4,2013-06-02 14:48:00,
2013-06-02 09:53:00,51.9,37.2,30.10,North,359,4.3,16.7,57,0.00,,,0.00,CWS Microserver 1.4,2013-06-02 14:53:00,
2013-06-02 09:58:00,52.5,37.8,30.10,North,0,11.4,16.4,57,0.00,,,0.00,CWS Microserver 1.4,2013-06-02 14:58:00,
2013-06-02 10:03:00,52.8,37.9,30.10,North,359,4.7,16.4,56,0.00,,,0.00,CWS Microserver 1.4,2013-06-02 15:03:00,
2013-06-02 10:08:00,53.0,38.4,30.10,NE,46,11.4,18.6,57,0.00,,,0.00,CWS Microserver 1.4,2013-06-02 15:08:00,
2013-06-02 10:13:00,53.2,38.0,30.10,NNE,19,12.5,18.6,56,0.00,,,0.00,CWS Microserver 1.4,2013-06-02 15:13:00,
2013-06-02 10:18:00,53.7,38.4,30.10,NNE,33,10.5,17.0,56,0.00,,,0.00,CWS Microserver 1.4,2013-06-02 15:18:00,
2013-06-02 10:23:00,53.9,37.5,30.10,NNE,13,4.6,15.5,53,0.00,,,0.00,CWS Microserver 1.4,2013-06-02 15:23:00,
2013-06-02 10:28:00,54.3,37.6,30.11,NE,38,11.3,15.7,53,0.00,,,0.00,CWS Microserver 1.4,2013-06-02 15:28:00,
2013-06-02 10:33:00,54.1,38.1,30.10,NE,46,6.5,15.7,54,0.00,,,0.00,CWS Microserver 1.4,2013-06-02 15:33:00,
2013-06-02 10:38:00,53.7,38.0,30.10,NNE,27,5.0,16.9,55,0.00,,,0.00,CWS Microserver 1.4,2013-06-02 15:38:00,
2013-06-02 10:43:00,53.6,37.1,30.11,NNE,17,9.2,17.1,53,0.00,,,0.00,CWS Microserver 1.4,2013-06-02 15:43:00,
2013-06-02 10:48:00,54.3,37.9,30.11,NNW,342,9.8,17.1,53,0.00,,,0.00,CWS Microserver 1.4,2013-06-02 15:48:00,
2013-06-02 10:53:00,53.6,37.5,30.10,NNW,342,5.0,14.1,54,0.00,,,0.00,CWS Microserver 1.4,2013-06-02 15:53:00,
2013-06-02 10:58:00,53.9,38.1,30.10,NE,44,6.9,17.2,55,0.00,,,0.00,CWS Microserver 1.4,2013-06-02 15:58:00,
2013-06-02 11:03:00,54.8,39.7,30.10,NNE,29,8.1,17.2,56,0.00,,,0.00,CWS Microserver 1.4,2013-06-02 16:03:00,
2013-06-02 11:08:00,54.3,36.5,30.10,NNE,26,9.0,15.7,51,0.00,,,0.00,CWS Microserver 1.4,2013-06-02 16:08:00,
2013-06-02 11:13:00,54.6,37.7,30.10,ENE,59,9.1,15.5,52,0.00,,,0.00,CWS Microserver 1.4,2013-06-02 16:13:00,
2013-06-02 11:18:00,55.2,38.0,30.10,NE,39,11.6,15.5,52,0.00,,,0.00,CWS Microserver 1.4,2013-06-02 16:18:00,
2013-06-02 11:23:00,54.8,38.0,30.10,North,1,3.0,15.5,53,0.00,,,0.00,CWS Microserver 1.4,2013-06-02 16:23:00,
2013-06-02 11:28:00,56.1,39.3,30.10,NE,46,7.9,13.1,53,0.00,,,0.00,CWS Microserver 1.4,2013-06-02 16:28:00,
2013-06-02 11:33:00,56.4,37.8,30.10,NNW,344,4.5,13.3,49,0.00,,,0.00,CWS Microserver 1.4,2013-06-02 16:33:00,
2013-06-02 11:38:00,55.7,37.5,30.10,NNW,342,7.6,16.1,50,0.00,,,0.00,CWS Microserver 1.4,2013-06-02 16:38:00,
2013-06-02 11:43:00,56.3,38.2,30.10,NNE,21,7.2,17.3,50,0.00,,,0.00,CWS Microserver 1.4,2013-06-02 16:43:00,
2013-06-02 11:48:00,56.6,38.5,30.10,NNE,15,4.3,17.3,50,0.00,,,0.00,CWS Microserver 1.4,2013-06-02 16:48:00,
2013-06-02 11:53:00,56.3,35.1,30.10,NNE,29,3.8,16.1,44,0.00,,,0.00,CWS Microserver 1.4,2013-06-02 16:53:00,
2013-06-02 11:58:00,57.2,38.3,30.10,ENE,65,9.7,12.5,49,0.00,,,0.00,CWS Microserver 1.4,2013-06-02 16:58:00,
2013-06-02 12:03:00,57.5,40.4,30.09,NE,38,6.1,12.5,52,0.00,,,0.00,CWS Microserver 1.4,2013-06-02 17:03:00,
2013-06-02 12:08:00,56.8,37.1,30.09,NNE,19,11.1,14.6,47,0.00,,,0.00,CWS Microserver 1.4,2013-06-02 17:08:00,
2013-06-02 12:13:00,57.3,37.3,30.09,NE,44,6.4,17.2,47,0.00,,,0.00,CWS Microserver 1.4,2013-06-02 17:13:00,
2013-06-02 12:18:00,57.3,37.8,30.09,NNE,30,3.1,17.2,48,0.00,,,0.00,CWS Microserver 1.4,2013-06-02 17:18:00,
2013-06-02 12:23:00,57.0,37.0,30.09,ENE,67,5.0,15.8,47,0.00,,,0.00,CWS Microserver 1.4,2013-06-02 17:23:00,
2013-06-02 12:28:00,57.9,36.9,30.09,NNW,345,1.4,10.4,45,0.00,,,0.00,CWS Microserver 1.4,2013-06-02 17:28:00,
2013-06-02 12:33:00,58.2,36.9,30.09,NE,37,14.8,14.8,44,0.00,,,0.00,CWS Microserver 1.4,2013-06-02 17:33:00,
2013-06-02 12:38:00,58.6,35.9,30.09,North,356,10.8,15.5,42,0.00,,,0.00,CWS Microserver 1.4,2013-06-02 17:38:00,
2013-06-02 12:43:00,58.6,35.9,30.09,NNE,19,1.3,15.5,42,0.00,,,0.00,CWS Microserver 1.4,2013-06-02 17:43:00,
2013-06-02 12:48:00,58.8,37.4,30.09,NNE,32,4.1,11.9,44,0.00,,,0.00,CWS Microserver 1.4,2013-06-02 17:48:00,
2013-06-02 12:53:00,58.2,36.1,30.09,NNE,13,15.3,15.3,43,0.00,,,0.00,CWS Microserver 1.4,2013-06-02 17:53:00,
2013-06-02 12:58:00,58.4,35.2,30.08,North,6,13.3,18.2,41,0.00,,,0.00,CWS Microserver 1.4,2013-06-02 17:58:00,
2013-06-02 13:03:00,58.4,35.8,30.08,NW,306,3.0,18.2,42,0.00,,,0.00,CWS Microserver 1.4,2013-06-02 18:03:00,
2013-06-02 13:08:00,59.0,36.7,30.08,North,2,4.5,16.4,43,0.00,,,0.00,CWS Microserver 1.4,2013-06-02 18:08:00,
2013-06-02 13:13:00,58.6,34.6,30.08,West,278,5.0,16.4,40,0.00,,,0.00,CWS Microserver 1.4,2013-06-02 18:13:00,
2013-06-02 13:18:00,59.1,35.1,30.08,SSE,154,0.4,12.2,40,0.00,,,0.00,CWS Microserver 1.4,2013-06-02 18:18:00,
2013-06-02 13:23:00,60.4,35.0,30.08,North,3,6.0,10.7,38,0.00,,,0.00,CWS Microserver 1.4,2013-06-02 18:23:00,
2013-06-02 13:28:00,59.9,33.5,30.08,NNW,343,3.9,13.4,37,0.00,,,0.00,CWS Microserver 1.4,2013-06-02 18:28:00,
2013-06-02 13:33:00,60.4,34.6,30.08,NNW,336,4.4,13.4,38,0.00,,,0.00,CWS Microserver 1.4,2013-06-02 18:33:00,
2013-06-02 13:38:00,60.4,35.1,30.08,NNE,30,3.1,11.9,38,0.00,,,0.00,CWS Microserver 1.4,2013-06-02 18:38:00,
2013-06-02 13:43:00,60.8,34.7,30.08,NE,42,12.6,17.4,37,0.00,,,0.00,CWS Microserver 1.4,2013-06-02 18:43:00,
2013-06-02 13:48:00,60.4,35.8,30.08,NNE,25,9.7,17.4,39,0.00,,,0.00,CWS Microserver 1.4,2013-06-02 18:48:00,
2013-06-02 13:53:00,60.4,34.6,30.08,NW,318,5.5,14.4,38,0.00,,,0.00,CWS Microserver 1.4,2013-06-02 18:53:00,
2013-06-02 13:58:00,61.3,34.5,30.08,North,356,13.6,14.4,36,0.00,,,0.00,CWS Microserver 1.4,2013-06-02 18:58:00,
2013-06-02 14:03:00,60.8,34.1,30.08,North,11,9.0,13.6,36,0.00,,,0.00,CWS Microserver 1.4,2013-06-02 19:03:00,
2013-06-02 14:08:00,61.1,34.4,30.08,NE,45,5.9,13.6,36,0.00,,,0.00,CWS Microserver 1.4,2013-06-02 19:08:00,
2013-06-02 14:13:00,60.6,34.6,30.08,North,359,1.6,12.5,37,0.00,,,0.00,CWS Microserver 1.4,2013-06-02 19:13:00,
2013-06-02 14:18:00,60.8,35.0,30.08,ENE,61,2.6,9.6,38,0.00,,,0.00,CWS Microserver 1.4,2013-06-02 19:18:00,
2013-06-02 14:23:00,61.8,33.9,30.07,West,274,1.0,9.4,35,0.00,,,0.00,CWS Microserver 1.4,2013-06-02 19:23:00,
2013-06-02 14:28:00,62.7,35.6,30.07,NNW,347,8.0,9.1,36,0.00,,,0.00,CWS Microserver 1.4,2013-06-02 19:28:00,
2013-06-02 14:33:00,62.0,34.0,30.07,SW,235,1.7,10.5,35,0.00,,,0.00,CWS Microserver 1.4,2013-06-02 19:33:00,
2013-06-02 14:43:00,61.7,34.1,30.07,NE,51,6.0,11.4,35,0.00,,,0.00,CWS Microserver 1.4,2013-06-02 19:43:00,
2013-06-02 14:48:00,62.9,34.5,30.07,NE,43,8.4,13.4,34,0.00,,,0.00,CWS Microserver 1.4,2013-06-02 19:48:00,
2013-06-02 14:53:00,62.6,36.0,30.06,NNE,30,8.4,13.4,37,0.00,,,0.00,CWS Microserver 1.4,2013-06-02 19:53:00,
2013-06-02 14:58:00,62.6,35.1,30.07,North,11,6.7,17.2,35,0.00,,,0.00,CWS Microserver 1.4,2013-06-02 19:58:00,
2013-06-02 15:03:00,62.4,35.5,30.07,NE,45,12.1,17.2,36,0.00,,,0.00,CWS Microserver 1.4,2013-06-02 20:03:00,
2013-06-02 15:08:00,62.4,35.9,30.07,NE,43,12.3,14.1,37,0.00,,,0.00,CWS Microserver 1.4,2013-06-02 20:08:00,
2013-06-02 15:13:00,62.7,33.9,30.07,ENE,76,5.5,12.4,34,0.00,,,0.00,CWS Microserver 1.4,2013-06-02 20:13:00,
2013-06-02 15:18:00,63.1,35.2,30.06,NE,55,1.9,12.3,35,0.00,,,0.00,CWS Microserver 1.4,2013-06-02 20:18:00,
2013-06-02 15:23:00,62.9,33.3,30.06,NNW,344,10.2,10.7,33,0.00,,,0.00,CWS Microserver 1.4,2013-06-02 20:23:00,
2013-06-02 15:28:00,63.5,33.5,30.06,NNE,14,8.7,11.3,32,0.00,,,0.00,CWS Microserver 1.4,2013-06-02 20:28:00,
2013-06-02 15:33:00,62.9,32.4,30.05,SE,124,1.6,11.3,31,0.00,,,0.00,CWS Microserver 1.4,2013-06-02 20:33:00,
2013-06-02 15:38:00,64.2,34.2,30.06,NW,319,9.7,12.2,32,0.00,,,0.00,CWS Microserver 1.4,2013-06-02 20:38:00,
2013-06-02 15:43:00,64.5,34.5,30.06,NNW,348,4.1,23.2,32,0.00,,,0.00,CWS Microserver 1.4,2013-06-02 20:43:00,
2013-06-02 15:48:00,64.4,33.7,30.06,North,350,6.1,23.2,31,0.00,,,0.00,CWS Microserver 1.4,2013-06-02 20:48:00,
2013-06-02 15:53:00,64.0,33.7,30.05,NW,304,4.1,11.8,32,0.00,,,0.00,CWS Microserver 1.4,2013-06-02 20:53:00,
2013-06-02 15:58:00,64.7,34.0,30.05,WNW,287,2.9,12.0,31,0.00,,,0.00,CWS Microserver 1.4,2013-06-02 20:58:00,
2013-06-02 16:03:00,64.9,36.0,30.05,North,359,2.9,12.0,34,0.00,,,0.00,CWS Microserver 1.4,2013-06-02 21:03:00,
2013-06-02 16:08:00,65.1,33.5,30.04,NE,39,9.2,15.4,30,0.00,,,0.00,CWS Microserver 1.4,2013-06-02 21:08:00,
2013-06-02 16:13:00,64.7,32.7,30.04,NNW,335,6.0,15.4,30,0.00,,,0.00,CWS Microserver 1.4,2013-06-02 21:13:00,
2013-06-02 16:18:00,65.1,32.7,30.04,WNW,289,7.1,13.0,29,0.00,,,0.00,CWS Microserver 1.4,2013-06-02 21:18:00,
2013-06-02 16:23:00,65.1,34.0,30.04,North,355,9.1,12.3,31,0.00,,,0.00,CWS Microserver 1.4,2013-06-02 21:23:00,
2013-06-02 16:28:00,65.6,32.4,30.04,NW,321,9.8,13.1,29,0.00,,,0.00,CWS Microserver 1.4,2013-06-02 21:28:00,
2013-06-02 16:33:00,65.3,33.2,30.04,NW,320,6.3,13.4,30,0.00,,,0.00,CWS Microserver 1.4,2013-06-02 21:33:00,
2013-06-02 16:38:00,65.3,32.7,30.04,NW,312,3.8,13.4,29,0.00,,,0.00,CWS Microserver 1.4,2013-06-02 21:38:00,
2013-06-02 16:43:00,65.4,31.9,30.04,North,351,4.4,13.3,28,0.00,,,0.00,CWS Microserver 1.4,2013-06-02 21:43:00,
2013-06-02 16:48:00,65.1,30.8,30.04,WNW,292,3.8,13.3,27,0.00,,,0.00,CWS Microserver 1.4,2013-06-02 21:48:00,
2013-06-02 16:53:00,65.8,31.2,30.04,West,278,4.9,13.3,27,0.00,,,0.00,CWS Microserver 1.4,2013-06-02 21:53:00,
2013-06-02 16:58:00,65.4,32.4,30.03,NW,324,8.5,20.3,29,0.00,,,0.00,CWS Microserver 1.4,2013-06-02 21:58:00,
2013-06-02 17:03:00,65.4,32.8,30.03,NW,315,5.5,20.3,29,0.00,,,0.00,CWS Microserver 1.4,2013-06-02 22:03:00,
2013-06-02 17:08:00,65.4,31.4,30.04,SE,126,0.3,13.2,28,0.00,,,0.00,CWS Microserver 1.4,2013-06-02 22:08:00,
2013-06-02 17:13:00,65.3,32.7,30.03,WNW,302,6.7,9.6,29,0.00,,,0.00,CWS Microserver 1.4,2013-06-02 22:13:00,
2013-06-02 17:18:00,65.1,31.9,30.03,North,355,5.5,9.6,28,0.00,,,0.00,CWS Microserver 1.4,2013-06-02 22:18:00,
2013-06-02 17:23:00,65.3,30.9,30.03,WNW,303,3.0,12.5,27,0.00,,,0.00,CWS Microserver 1.4,2013-06-02 22:23:00,
2013-06-02 17:28:00,65.1,30.9,30.03,NNW,342,4.4,12.5,27,0.00,,,0.00,CWS Microserver 1.4,2013-06-02 22:28:00,
2013-06-02 17:33:00,65.4,35.1,30.03,NNE,13,5.7,9.9,32,0.00,,,0.00,CWS Microserver 1.4,2013-06-02 22:33:00,
2013-06-02 17:38:00,65.3,32.7,30.03,NNE,16,9.0,10.6,29,0.00,,,0.00,CWS Microserver 1.4,2013-06-02 22:38:00,
2013-06-02 17:43:00,65.3,31.7,30.03,East,84,4.3,10.6,28,0.00,,,0.00,CWS Microserver 1.4,2013-06-02 22:43:00,
2013-06-02 17:48:00,65.4,31.9,30.03,NNE,26,0.4,9.0,28,0.00,,,0.00,CWS Microserver 1.4,2013-06-02 22:48:00,
2013-06-02 17:53:00,66.2,32.6,30.03,WNW,296,3.6,9.2,28,0.00,,,0.00,CWS Microserver 1.4,2013-06-02 22:53:00,
2013-06-02 17:58:00,66.2,34.2,30.02,North,356,8.8,9.2,30,0.00,,,0.00,CWS Microserver 1.4,2013-06-02 22:58:00,
2013-06-02 18:03:00,66.0,36.2,30.03,NNE,33,6.9,9.2,33,0.00,,,0.00,CWS Microserver 1.4,2013-06-02 23:03:00,
2013-06-02 18:08:00,66.0,31.8,30.03,WNW,287,6.0,9.2,27,0.00,,,0.00,CWS Microserver 1.4,2013-06-02 23:08:00,
2013-06-02 18:13:00,65.6,31.4,30.02,NNE,18,3.1,10.2,27,0.00,,,0.00,CWS Microserver 1.4,2013-06-02 23:13:00,
2013-06-02 18:18:00,65.4,31.9,30.02,NE,37,4.8,10.2,28,0.00,,,0.00,CWS Microserver 1.4,2013-06-02 23:18:00,
2013-06-02 18:23:00,65.3,32.6,30.02,NNE,25,5.2,9.3,29,0.00,,,0.00,CWS Microserver 1.4,2013-06-02 23:23:00,
2013-06-02 18:28:00,65.4,31.6,30.02,ESE,114,1.6,8.8,28,0.00,,,0.00,CWS Microserver 1.4,2013-06-02 23:28:00,
2013-06-02 18:33:00,65.6,31.7,30.02,NE,38,2.1,8.5,28,0.00,,,0.00,CWS Microserver 1.4,2013-06-02 23:33:00,
2013-06-02 18:38:00,65.6,32.9,30.02,North,0,8.5,10.8,29,0.00,,,0.00,CWS Microserver 1.4,2013-06-02 23:38:00,
2013-06-02 18:43:00,65.6,33.0,30.02,NW,316,5.4,10.8,29,0.00,,,0.00,CWS Microserver 1.4,2013-06-02 23:43:00,
2013-06-02 18:48:00,65.8,32.2,30.02,NNE,12,3.8,10.5,28,0.00,,,0.00,CWS Microserver 1.4,2013-06-02 23:48:00,
2013-06-02 18:53:00,66.0,32.2,30.02,NW,317,1.8,10.5,28,0.00,,,0.00,CWS Microserver 1.4,2013-06-02 23:53:00,
2013-06-02 18:58:00,66.0,34.7,30.02,North,2,5.3,7.3,31,0.00,,,0.00,CWS Microserver 1.4,2013-06-02 23:58:00,
2013-06-02 19:03:00,65.6,32.7,30.02,NNE,26,3.4,7.3,29,0.00,,,0.00,CWS Microserver 1.4,2013-06-03 00:03:00,
2013-06-02 19:08:00,65.6,32.2,30.02,ENE,67,2.8,6.1,28,0.00,,,0.00,CWS Microserver 1.4,2013-06-03 00:08:00,
2013-06-02 19:13:00,65.8,33.8,30.02,North,8,1.5,4.7,30,0.00,,,0.00,CWS Microserver 1.4,2013-06-03 00:13:00,
2013-06-02 19:18:00,66.0,32.1,30.02,NNW,338,2.7,4.9,28,0.00,,,0.00,CWS Microserver 1.4,2013-06-03 00:18:00,
2013-06-02 19:23:00,66.2,33.5,30.02,NNW,343,2.8,9.1,29,0.00,,,0.00,CWS Microserver 1.4,2013-06-03 00:23:00,
2013-06-02 19:28:00,66.0,32.9,30.02,West,274,4.7,9.1,29,0.00,,,0.00,CWS Microserver 1.4,2013-06-03 00:28:00,
2013-06-02 19:33:00,65.6,33.9,30.02,North,353,3.6,8.7,30,0.00,,,0.00,CWS Microserver 1.4,2013-06-03 00:33:00,
2013-06-02 19:38:00,65.4,32.1,30.02,North,353,3.6,7.7,28,0.00,,,0.00,CWS Microserver 1.4,2013-06-03 00:38:00,
2013-06-02 19:43:00,65.4,32.8,30.02,NW,311,1.8,6.8,29,0.00,,,0.00,CWS Microserver 1.4,2013-06-03 00:43:00,
2013-06-02 19:48:00,65.4,32.2,30.01,North,9,5.6,6.4,28,0.00,,,0.00,CWS Microserver 1.4,2013-06-03 00:48:00,
2013-06-02 19:53:00,65.1,31.9,30.01,NNE,24,4.1,8.6,28,0.00,,,0.00,CWS Microserver 1.4,2013-06-03 00:53:00,
2013-06-02 19:58:00,64.7,33.7,30.01,NNE,25,6.7,8.6,31,0.00,,,0.00,CWS Microserver 1.4,2013-06-03 00:58:00,
2013-06-02 20:03:00,64.2,31.7,30.02,NNE,26,5.1,8.3,29,0.00,,,0.00,CWS Microserver 1.4,2013-06-03 01:03:00,
2013-06-02 20:08:00,64.2,32.5,30.01,NE,35,4.7,8.3,30,0.00,,,0.00,CWS Microserver 1.4,2013-06-03 01:08:00,
2013-06-02 20:13:00,64.2,32.4,30.01,NE,44,2.5,7.6,30,0.00,,,0.00,CWS Microserver 1.4,2013-06-03 01:13:00,
2013-06-02 20:18:00,64.5,31.8,30.01,NNE,14,4.3,5.1,29,0.00,,,0.00,CWS Microserver 1.4,2013-06-03 01:18:00,
2013-06-02 20:23:00,64.0,32.0,30.02,NNE,22,3.1,6.1,30,0.00,,,0.00,CWS Microserver 1.4,2013-06-03 01:23:00,
2013-06-02 20:28:00,64.2,32.8,30.01,NE,44,4.7,6.3,30,0.00,,,0.00,CWS Microserver 1.4,2013-06-03 01:28:00,
2013-06-02 20:33:00,63.8,34.8,30.01,North,9,2.5,6.4,33,0.00,,,0.00,CWS Microserver 1.4,2013-06-03 01:33:00,
2013-06-02 20:38:00,63.3,33.6,30.01,NNE,22,5.3,6.4,32,0.00,,,0.00,CWS Microserver 1.4,2013-06-03 01:38:00,
2013-06-02 20:48:00,62.6,33.6,30.01,NE,35,4.9,7.7,33,0.00,,,0.00,CWS Microserver 1.4,2013-06-03 01:48:00,
2013-06-02 20:53:00,62.9,33.4,30.01,NE,46,4.4,7.7,33,0.00,,,0.00,CWS Microserver 1.4,2013-06-03 01:53:00,
2013-06-02 20:58:00,62.9,34.3,30.01,NE,48,3.6,5.4,34,0.00,,,0.00,CWS Microserver 1.4,2013-06-03 01:58:00,
2013-06-02 21:03:00,62.6,34.1,30.02,NNE,24,2.3,5.3,34,0.00,,,0.00,CWS Microserver 1.4,2013-06-03 02:03:00,
2013-06-02 21:08:00,61.7,35.6,30.02,NNE,22,3.6,4.5,37,0.00,,,0.00,CWS Microserver 1.4,2013-06-03 02:08:00,
2013-06-02 21:13:00,61.8,33.4,30.02,NNE,25,4.1,4.6,34,0.00,,,0.00,CWS Microserver 1.4,2013-06-03 02:13:00,
2013-06-02 21:18:00,62.0,33.5,30.02,NNE,26,4.5,5.5,34,0.00,,,0.00,CWS Microserver 1.4,2013-06-03 02:18:00,
2013-06-02 21:23:00,61.8,33.7,30.02,NE,35,4.1,5.5,34,0.00,,,0.00,CWS Microserver 1.4,2013-06-03 02:23:00,
2013-06-02 21:28:00,61.7,33.9,30.02,NNE,27,4.4,5.5,35,0.00,,,0.00,CWS Microserver 1.4,2013-06-03 02:28:00,
2013-06-02 21:33:00,61.5,34.0,30.02,NE,35,4.8,5.9,35,0.00,,,0.00,CWS Microserver 1.4,2013-06-03 02:33:00,
2013-06-02 21:38:00,61.3,34.5,30.02,NE,39,3.2,5.9,36,0.00,,,0.00,CWS Microserver 1.4,2013-06-03 02:38:00,
2013-06-02 21:43:00,60.8,34.2,30.02,NNE,27,3.4,5.2,36,0.00,,,0.00,CWS Microserver 1.4,2013-06-03 02:43:00,
2013-06-02 21:48:00,60.8,34.4,30.02,NNE,25,3.9,5.2,37,0.00,,,0.00,CWS Microserver 1.4,2013-06-03 02:48:00,
2013-06-02 21:53:00,60.4,34.7,30.03,ENE,57,3.5,4.1,38,0.00,,,0.00,CWS Microserver 1.4,2013-06-03 02:53:00,
2013-06-02 21:58:00,60.0,34.9,30.03,NE,45,2.8,4.0,38,0.00,,,0.00,CWS Microserver 1.4,2013-06-03 02:58:00,
2013-06-02 22:03:00,59.9,35.5,30.03,ENE,63,3.5,4.2,40,0.00,,,0.00,CWS Microserver 1.4,2013-06-03 03:03:00,
2013-06-02 22:08:00,59.5,35.1,30.03,ENE,59,3.1,4.7,40,0.00,,,0.00,CWS Microserver 1.4,2013-06-03 03:08:00,
2013-06-02 22:13:00,59.7,35.2,30.03,NE,51,4.2,4.7,39,0.00,,,0.00,CWS Microserver 1.4,2013-06-03 03:13:00,
2013-06-02 22:18:00,60.2,34.6,30.03,NE,54,2.9,5.3,38,0.00,,,0.00,CWS Microserver 1.4,2013-06-03 03:18:00,
2013-06-02 22:23:00,60.2,34.6,30.03,NE,44,2.9,5.3,38,0.00,,,0.00,CWS Microserver 1.4,2013-06-03 03:23:00,
2013-06-02 22:28:00,59.3,34.9,30.03,NE,34,2.2,3.9,40,0.00,,,0.00,CWS Microserver 1.4,2013-06-03 03:28:00,
2013-06-02 22:33:00,59.0,34.9,30.04,NNE,13,2.2,3.2,40,0.00,,,0.00,CWS Microserver 1.4,2013-06-03 03:33:00,
2013-06-02 22:38:00,59.0,34.4,30.04,NNE,20,2.7,2.9,39,0.00,,,0.00,CWS Microserver 1.4,2013-06-03 03:38:00,
2013-06-02 22:43:00,59.1,35.0,30.03,NNE,12,2.7,3.3,40,0.00,,,0.00,CWS Microserver 1.4,2013-06-03 03:43:00,
2013-06-02 22:48:00,59.0,34.5,30.03,NNE,25,3.2,3.4,39,0.00,,,0.00,CWS Microserver 1.4,2013-06-03 03:48:00,
2013-06-02 22:53:00,59.1,34.6,30.03,NE,35,3.4,3.9,39,0.00,,,0.00,CWS Microserver 1.4,2013-06-03 03:53:00,
2013-06-02 22:58:00,59.1,34.5,30.04,NE,36,3.5,6.2,39,0.00,,,0.00,CWS Microserver 1.4,2013-06-03 03:58:00,
2013-06-02 23:03:00,59.0,34.5,30.04,NNE,29,3.1,6.2,39,0.00,,,0.00,CWS Microserver 1.4,2013-06-03 04:03:00,
2013-06-02 23:08:00,58.8,34.9,30.04,ENE,61,3.0,4.5,40,0.00,,,0.00,CWS Microserver 1.4,2013-06-03 04:08:00,
2013-06-02 23:13:00,57.3,36.3,30.04,SSE,149,5.3,6.3,45,0.00,,,0.00,CWS Microserver 1.4,2013-06-03 04:13:00,
2013-06-02 23:18:00,56.4,35.6,30.04,SSE,151,4.8,6.3,45,0.00,,,0.00,CWS Microserver 1.4,2013-06-03 04:18:00,
2013-06-02 23:23:00,56.8,35.2,30.04,SSE,151,3.3,5.7,44,0.00,,,0.00,CWS Microserver 1.4,2013-06-03 04:23:00,
2013-06-02 23:28:00,57.3,35.5,30.04,SE,137,2.1,4.9,44,0.00,,,0.00,CWS Microserver 1.4,2013-06-03 04:28:00,
2013-06-02 23:33:00,57.2,35.8,30.04,ESE,119,2.5,3.7,44,0.00,,,0.00,CWS Microserver 1.4,2013-06-03 04:33:00,
2013-06-02 23:38:00,57.3,35.8,30.04,SSE,152,3.0,4.4,44,0.00,,,0.00,CWS Microserver 1.4,2013-06-03 04:38:00,
2013-06-02 23:43:00,57.2,35.4,30.04,SE,135,2.6,4.4,44,0.00,,,0.00,CWS Microserver 1.4,2013-06-03 04:43:00,
2013-06-02 23:48:00,57.5,35.4,30.04,ESE,123,3.8,3.9,43,0.00,,,0.00,CWS Microserver 1.4,2013-06-03 04:48:00,
2013-06-02 23:53:00,57.7,35.5,30.04,ESE,110,3.4,3.9,43,0.00,,,0.00,CWS Microserver 1.4,2013-06-03 04:53:00,
2013-06-02 23:58:00,58.1,35.7,30.04,SE,132,1.6,3.8,43,0.00,,,0.00,CWS Microserver 1.4,2013-06-03 04:58:00,